RADUGA 26 [-]

Last updated on June 24, 2019, 3:40 a.m. UTC

1 21016U 90112A   19173.99452045 -.00000169  00000-0  00000+0 0  9998
2 21016  14.8507 358.5891 0007004  24.8311 327.4603  1.00225682104664
UTC
Height (km)
Latitude
Longitude
Inclination
Orbital Period
UTC large
Height (km)
Speed (km/s)
/
Latitude / Longitude
Inclination (degrees)
Orbital Period (minutes)
Azimuth
Elevation
Range (km)
Doppler Factor
iOS Compass Heading
iOS Angle

Next 30 passes for location: Hong Kong

Rise time Rise Azimuth (degrees) Set time Set Azimuth (degrees) Duration Max altitude (degrees)

No matching passes for this satellites